Tracking 22779 objects as of 14-Apr-2021
HD Live streaming from Space Station
objects crossing your sky now

HGS 4 (GALAXY 4)

Track HGS 4 (GALAXY 4) now!
HGS 4 (GALAXY 4) is classified as:


NORAD ID: 22694
Int'l Code: 1993-039A
Perigee: 35,755.6 km
Apogee: 35,827.3 km
Inclination: 14.6 °
Period: 1,436.0 minutes
Semi major axis: 42162 km
RCS: 28.88 m2 (large)
Launch date: June 25, 1993
Source: United States (US)
Launch site: FRENCH GUIANA (FRGUI)
aabbcc
Your satellite tracking list
Your tracking list is empty




NASA's NSSDC Master Catalog

Two Line Element Set (TLE):
1 22694U 93039A   21103.76577086 -.00000116  00000-0  00000+0 0  9998
2 22694  14.6136   9.9003 0008497 302.7091 240.7134  1.00280052100030
Source of the keplerian elements: AFSPC